SCP
0 0 0 -0 -0 -0 -0 -0 -0 -0 -0 -1 -1 -1 -1 -1 -1 -0 -0 -0 -0 -0 -0 -0 -0 -0 -0 -0 -0 0 -0 -0 -0 -0 -0 -0 -0 -0 -0 -0 -0 0 -0
-0 0 -0 -0 -0 -0 -0 -0 -0 -0 -0 -0 -1 -0 -0 -0 -0 -0 -0 -0 -0 -0 -0 -0 -0 -0 -0 -0 0 -0 -0 -0 -0 -0 -0 -0 -0 -0 -0 -0 -0 0 -0
-0 0 -0 -0 -0 -0 -0 -0 -0 -0 -0 -0 -0 -0 -0 -0 -0 -0 -0 -0 -0 -0 -0 -0 -0 -0 -0 0 -0 -0 0 -0 -0 -0 -0 -0 -0 0 -0 -0 -0 -0 -0
-0 0 -0 -0 -0 -0 -0 -0 -0 -0 -0 -0 -0 -0 -0 -0 -0 -0 -0 -0 -0 -0 -0 -0 0 -0 -0 0 0 0 0 -0 0 0 0 0 -0 0 -0 -0 -0 0 -0
-0 0 -0 -0 -0 -0 -0 -0 -0 -0 -0 -0 -0 -0 -0 -0 -0 -0 -0 -0 -0 -0 -0 0 0 0 0 0 0 -0 -0 -0 -0 0 -0 -0 -0 0 0 0 0 -0 0
-0 -0 -0 -0 -0 -0 -0 -0 -0 -0 -0 -0 -0 -0 -0 -0 -0 -0 -0 -0 -0 -0 -0 -0 0 -0 0 -0 0 -0 -0 -0 -0 -0 -0 0 -0 0 0 -0 0 0 -0
-0 -0 -0 -0 -0 -0 -0 -0 -0 -0 -0 -0 -0 -0 -0 -0 -0 -0 -0 -0 -0 -0 -0 0 0 0 0 -0 0 -0 -0 -0 -0 -0 -0 -0 -0 -0 0 0 0 -0 0
-0 -0 -0 -0 -0 -0 -0 -0 -0 -0 -0 -0 -0 -0 -0 -0 -0 -0 -0 -0 -0 -0 -0 0 0 0 -0 -0 -0 -0 0 0 -0 -0 -0 -0 -0 -0 -0 0 -0 -0 0
-0 -0 -0 -0 -0 -0 -0 -0 -0 -0 -0 0 -0 -0 -0 -0 -0 -0 -0 -0 -0 -0 -0 -0 -0 0 -0 0 -0 -0 0 0 0 -0 -0 -0 -0 -0 -0 -0 -0 -0 -0
-0 -0 -0 -0 -0 -0 -0 -0 -0 -0 -0 0 0 -0 -0 -0 -0 -0 -0 -0 -0 -0 -0 -0 -0 -0 -0 0 0 0 -0 -0 0 0 0 -0 -0 -0 -0 -0 -0 -0 -0
-0 -0 -0 0 -0 -0 -0 -0 -0 -0 -0 0 0 -0 0 0 0 0 0 -0 -0 0 -0 -0 0 0 -0 -0 0 0 -0 0 0 0 0 0 -0 -0 -0 -0 -0 -0 -0
-0 -0 -0 -0 -0 -0 0 0 -0 0 -0 -0 0 0 0 0 0 0 -0 0 0 0 0 0 0 -0 -0 -0 -0 -0 -0 -0 0 0 0 -0 -0 -0 -0 -0 -0 -0 -0
-0 -0 -0 -0 -0 0 0 0 0 0 -0 -0 -0 0 -0 0 0 0 0 0 0 0 0 0 0 -0 0 0 -0 -0 -0 -0 0 0 0 -0 -0 -0 -0 -0 -0 -0 -0
-0 -0 -0 -0 -0 -0 0 0 0 0 -0 -0 -0 0 0 0 0 0 0 0 0 -0 0 0 0 0 0 0 -0 -0 -0 -0 -0 0 0 -0 -0 -0 -0 -0 -0 -0 -0
-0 -0 -0 -0 -0 -0 -0 0 0 0 0 -0 -0 0 0 0 0 0 0 0 -0 -0 0 0 0 0 0 0 0 0 0 0 0 0 0 -0 -0 -0 -0 -0 -0 -0 -0
-0 -0 -0 -0 -0 -0 -0 -0 -0 -0 0 0 0 0 0 0 0 0 0 0 0 0 -0 0 0 0 0 0 0 -0 0 0 0 -0 0 0 0 -0 -0 -0 -0 -0 -0
-0 -0 -0 -0 -0 -0 0 -0 -0 0 0 0 0 0 0 0 -0 -0 -0 0 0 0 0 -0 0 0 0 0 0 -0 -0 0 -0 0 0 0 0 -0 -0 -0 0 0 0
-0 -0 -0 -0 -0 -0 -0 0 -0 -0 -0 0 0 0 0 0 -0 -0 0 0 0 0 0 0 0 0 0 0 -0 0 0 0 0 0 0 -0 0 0 0 -0 0 0 0
-1 -1 -1 -0 -0 -0 -0 0 -0 -0 -0 0 -0 -0 -0 0 -0 -0 -0 0 0 0 0 -0 0 0 0 -0 0 0 0 -0 0 0 0 -0 0 0 0 0 0 0 0
-1 -1 -1 -1 -0 -0 -0 -0 -0 -0 0 -0 0 -0 -0 0 -0 -0 0 -0 -0 -0 0 0 0 0 0 0 -0 -0 -0 0 -0 0 -0 -0 0 0 0 0 0 0 0
-0 -1 -1 -1 -0 -0 0 0 0 0 0 -0 0 0 -0 0 0 0 0 0 0 0 0 0 0 -0 -0 -0 -0 -0 0 -0 0 0 -0 -0 0 0 0 0 0 0 0
-1 -1 -1 -0 -0 -0 -0 0 0 0 0 -0 -0 0 0 -0 0 0 0 -0 -0 0 0 0 0 0 0 0 0 0 0 0 -0 0 -0 0 0 0 -0 -0 0 0 0
-1 -1 -1 -1 -1 -0 -0 -0 0 0 0 0 0 -0 0 -0 -0 0 -0 -0 -0 0 0 0 0 0 0 0 0 -0 0 0 0 0 -0 0 0 0 -0 -0 0 0 0
-0 -1 -0 -0 -0 -0 -0 -0 0 0 0 0 -0 0 0 -0 0 0 0 0 0 -0 0 0 0 0 0 0 0 -0 0 -0 0 0 0 0 0 0 -0 -0 0 0 0
-0 -0 -0 -0 -0 -0 -0 -0 -0 0 0 0 -0 0 0 0 0 0 -0 0 0 -0 0 -0 -0 -0 0 0 0 0 0 0 0 0 0 0 0 0 0 0 0 0 0
-0 -0 -0 -0 -0 -0 -0 -0 -0 -0 0 0 0 0 -0 -0 0 0 0 0 -0 -0 -0 -0 -0 -0 0 0 0 0 0 0 0 0 0 0 0 0 0 0 0 0 0
Wind_Speed_500mb
49 46 46 58 59 53 49 43 44 46 48 47 46 46 45 40 37 35 33 30 29 28 26 25 22 19 19 19 16 18 23 25 26 30 32 36 38 37 36 37 38 36 37
56 51 48 50 54 51 49 48 45 45 46 47 45 41 39 36 34 29 25 24 21 19 20 22 20 18 17 17 16 15 18 23 25 30 33 37 39 39 38 35 35 34 34
55 53 50 50 50 49 48 48 48 47 46 45 42 40 38 35 32 29 25 20 16 16 17 18 18 17 16 16 16 16 19 21 22 30 33 32 33 35 37 33 32 32 30
56 54 50 49 48 48 48 46 46 47 46 44 42 38 35 31 28 23 17 14 15 16 16 16 16 17 19 19 18 16 17 20 20 26 28 29 28 31 32 31 27 24 22
56 52 49 47 46 46 44 43 44 42 39 38 36 31 26 23 20 15 12 13 15 16 15 14 15 17 19 20 20 21 21 29 31 24 24 25 22 26 26 24 25 24 22
56 50 48 46 45 44 43 42 41 38 34 30 28 25 23 19 14 12 12 15 14 13 13 13 13 14 18 21 21 24 24 26 33 36 25 28 21 23 22 23 20 19 20
55 49 47 47 45 43 41 39 37 34 30 27 25 24 20 16 13 11 15 13 13 12 12 13 14 16 18 20 20 24 26 26 34 39 32 21 23 23 21 21 22 21 17
52 51 47 44 42 41 38 36 35 33 30 26 24 20 16 13 13 15 15 12 11 10 11 13 15 17 18 20 21 19 23 31 11 38 37 25 20 25 25 22 22 22 17
43 46 46 45 41 37 35 33 32 28 25 22 20 17 14 13 16 17 16 11 9 8 8 11 16 20 18 18 18 19 22 19 22 30 38 29 25 22 25 22 25 23 19
39 37 42 43 41 38 36 31 29 28 25 21 18 17 14 15 17 16 13 10 9 7 8 10 14 16 20 16 15 20 23 22 21 20 18 15 16 22 21 24 24 26 22
37 34 37 41 41 39 34 29 27 26 25 22 18 18 16 15 16 13 10 8 8 8 9 10 13 15 18 19 21 26 22 15 23 26 23 20 15 14 18 23 29 28 24
38 32 34 38 40 33 24 26 27 31 30 27 20 20 18 20 20 18 14 10 7 9 8 12 17 18 20 22 23 26 25 25 21 18 18 20 19 16 23 31 32 28 25
34 33 35 35 34 30 25 26 25 30 29 29 26 22 24 17 13 10 4 1 5 8 9 14 17 18 16 17 19 21 30 30 30 25 27 26 27 28 32 35 32 29 27
42 33 34 35 24 27 22 22 23 23 31 29 29 23 22 8 13 9 6 10 11 11 12 11 14 17 11 18 10 25 30 27 21 22 20 29 29 30 33 32 31 30 28
45 39 36 35 26 21 23 19 24 17 28 31 32 26 21 15 8 9 8 18 16 19 15 15 18 16 13 9 16 22 20 11 17 20 24 28 27 24 27 27 30 31 29
45 43 36 33 24 20 26 16 23 18 25 34 35 26 18 12 10 7 8 15 23 23 18 15 11 12 12 16 13 14 13 6 7 13 16 21 19 18 20 22 24 26 26
48 44 40 34 33 28 24 19 19 20 20 26 29 28 23 14 9 3 16 22 29 24 20 18 10 5 4 5 4 5 14 11 15 6 6 10 11 14 16 17 19 20 22
48 52 44 39 39 30 27 23 19 14 18 19 28 34 29 24 15 11 13 24 21 19 18 18 11 4 8 7 13 14 18 9 8 13 10 15 13 12 10 12 15 18 20
54 52 49 43 41 32 24 22 21 21 17 16 26 39 32 27 17 16 17 16 14 18 19 19 19 8 5 9 9 14 15 17 11 17 17 20 16 17 13 8 11 12 13
60 55 49 45 42 34 29 22 18 26 20 17 24 37 34 26 22 19 21 20 21 24 22 18 15 12 12 17 15 17 26 20 17 21 20 21 23 21 20 19 13 12 10
62 64 56 51 50 43 41 36 26 30 29 26 26 34 32 25 29 35 32 31 32 26 24 20 15 13 16 9 5 12 30 29 7 25 28 29 27 24 19 15 12 17 12
65 65 62 57 55 48 40 37 30 27 30 23 19 39 33 28 30 27 28 30 34 31 23 20 18 14 14 13 12 7 13 20 17 21 24 22 28 25 26 20 15 18 21
71 70 66 62 53 49 42 38 32 32 33 32 34 46 38 37 34 27 31 39 30 30 23 17 20 22 17 16 11 5 6 11 25 22 15 22 16 26 27 24 20 14 20
65 64 65 59 54 50 46 45 39 40 47 40 35 44 41 41 35 28 28 32 33 28 24 23 20 25 19 16 16 7 7 22 8 17 15 16 9 13 24 14 8 15 20
61 66 63 57 54 49 50 46 42 40 41 39 36 37 46 37 32 28 30 26 40 28 33 23 22 24 22 17 16 11 14 8 11 19 9 13 8 21 16 20 6 5 18
65 66 62 59 52 46 47 47 45 43 45 44 44 44 45 46 43 42 43 34 36 34 33 29 28 30 28 23 14 9 8 3 1 4 6 16 12 9 19 23 26 18 16
Wind_Direction_500mb
164 152 149 153 153 152 147 141 139 145 147 148 143 143 144 146 143 138 136 142 144 146 147 143 139 136 132 131 131 124 129 134 140 142 144 137 132 130 129 127 124 121 119
157 156 154 152 154 155 150 145 142 139 143 148 150 146 148 150 145 146 148 157 160 163 166 166 158 157 150 151 152 156 146 139 143 153 150 142 139 136 130 128 129 125 121
159 155 157 154 152 156 156 151 150 147 145 148 148 149 149 150 148 148 152 155 161 176 183 178 171 161 161 164 164 168 159 147 145 154 152 146 143 138 132 132 132 128 126
157 157 156 155 153 154 155 154 156 155 151 151 154 151 151 151 152 152 154 155 160 163 173 178 174 166 164 167 169 169 153 148 151 155 151 149 144 140 135 137 132 128 127
157 154 154 154 156 156 156 157 159 157 155 155 154 158 154 156 157 156 151 149 144 152 153 165 170 171 172 172 168 165 160 162 163 156 161 158 149 151 144 144 152 151 149
158 158 155 157 158 158 157 157 159 160 163 163 163 161 161 160 157 157 148 139 143 145 148 159 161 162 174 161 165 160 176 175 176 181 170 160 167 163 165 162 160 158 157
163 164 162 164 159 156 158 159 163 168 170 173 166 165 167 163 160 158 146 146 145 142 151 162 160 155 160 151 160 175 192 184 178 185 179 154 162 174 185 176 171 179 175
163 164 165 166 166 166 167 168 169 169 166 167 167 172 175 165 160 152 148 151 148 144 157 161 163 154 153 150 151 184 164 128 155 197 200 203 179 181 189 194 196 201 201
167 166 168 168 169 167 168 170 171 170 168 169 176 179 177 173 159 158 158 154 146 149 148 155 153 154 156 160 157 192 172 158 112 151 185 192 203 199 187 206 213 210 215
170 173 172 173 171 168 170 171 171 177 177 179 183 181 176 170 160 159 154 144 141 154 127 152 157 152 156 170 177 183 189 169 147 146 165 172 190 208 191 210 215 219 218
168 173 183 179 169 169 173 178 191 192 179 166 172 168 158 163 155 145 146 144 152 171 154 150 150 164 173 166 176 175 192 203 169 157 172 182 174 193 210 217 221 220 217
171 172 183 182 178 180 188 205 209 202 197 192 169 161 161 162 165 156 162 190 188 185 177 165 165 176 168 159 173 188 185 190 198 194 210 211 218 227 222 222 223 217 216
184 180 184 185 196 191 192 197 195 204 199 198 181 161 168 180 187 190 156 246 195 187 177 177 175 174 180 167 181 181 186 194 215 232 246 230 229 235 226 222 223 221 216
191 193 190 188 198 193 194 197 203 199 201 197 185 176 172 175 191 207 290 212 224 195 187 174 184 172 172 115 160 187 187 187 201 216 218 225 228 234 226 224 228 227 227
203 194 192 191 196 208 194 188 199 204 186 190 185 185 185 168 165 179 291 200 210 212 192 159 152 171 163 154 147 164 179 195 211 229 224 224 237 235 231 233 234 238 234
215 207 201 196 187 178 185 181 185 173 175 185 188 191 190 166 199 248 290 187 176 169 170 154 147 160 146 149 151 187 200 171 181 197 214 240 249 243 241 241 243 237 230
214 204 202 202 195 189 181 181 184 180 181 181 183 195 198 195 186 115 182 162 168 177 169 156 171 141 167 158 141 166 215 213 177 189 201 255 287 249 244 246 244 242 234
206 207 203 197 198 196 196 193 186 181 162 172 182 186 189 191 201 202 138 163 165 163 160 135 134 181 231 260 273 238 219 254 224 198 208 228 240 270 268 249 244 248 246
204 205 204 203 204 199 194 200 201 203 179 171 182 176 182 190 207 218 203 184 181 179 183 185 208 221 178 255 247 232 223 226 253 219 213 221 223 225 225 243 244 236 247
203 204 208 207 207 203 194 191 205 195 203 202 190 189 183 183 208 206 202 204 191 181 188 181 196 194 201 235 193 189 214 225 214 229 227 233 229 222 221 217 243 229 231
207 204 207 209 208 202 198 193 218 215 200 205 205 204 190 199 210 217 222 216 211 200 194 209 214 201 230 262 231 220 217 216 242 217 221 252 225 229 226 213 222 219 234
204 206 210 212 209 204 207 210 221 231 215 212 209 197 196 194 207 199 203 193 195 195 204 192 233 244 240 243 262 238 220 231 195 212 233 243 242 216 222 217 212 236 240
206 205 210 213 208 211 212 212 216 214 211 212 213 202 204 204 208 201 192 192 207 203 219 209 231 227 213 237 236 269 176 230 227 215 232 205 207 222 219 215 221 235 234
211 212 208 210 212 219 214 216 222 220 212 209 208 207 208 201 202 207 206 210 201 196 223 215 221 202 210 214 225 275 89 166 158 203 223 181 207 200 205 141 165 210 225
211 210 212 213 215 223 220 223 227 231 227 221 214 220 216 209 214 214 216 209 207 213 204 194 190 206 212 212 206 181 186 167 125 124 174 179 235 221 214 207 140 187 211
208 212 215 216 220 221 224 228 229 234 225 223 219 223 218 217 223 222 224 215 210 223 218 224 208 217 218 213 210 214 185 140 33 185 118 203 295 228 238 242 236 223 215
Wind_Speed_850mb
49 46 46 58 59 53 49 43 44 46 48 47 46 46 45 40 37 35 33 30 29 28 26 25 22 19 19 19 16 18 23 25 26 30 32 36 38 37 36 37 38 36 37
56 51 48 50 54 51 49 48 45 45 46 47 45 41 39 36 34 29 25 24 21 19 20 22 20 18 17 17 16 15 18 23 25 30 33 37 39 39 38 35 35 34 34
55 53 50 50 50 49 48 48 48 47 46 45 42 40 38 35 32 29 25 20 16 16 17 18 18 17 16 16 16 16 19 21 22 30 33 32 33 35 37 33 32 32 30
56 54 50 49 48 48 48 46 46 47 46 44 42 38 35 31 28 23 17 14 15 16 16 16 16 17 19 19 18 16 17 20 20 26 28 29 28 31 32 31 27 24 22
56 52 49 47 46 46 44 43 44 42 39 38 36 31 26 23 20 15 12 13 15 16 15 14 15 17 19 20 20 21 21 29 31 24 24 25 22 26 26 24 25 24 22
56 50 48 46 45 44 43 42 41 38 34 30 28 25 23 19 14 12 12 15 14 13 13 13 13 14 18 21 21 24 24 26 33 36 25 28 21 23 22 23 20 19 20
55 49 47 47 45 43 41 39 37 34 30 27 25 24 20 16 13 11 15 13 13 12 12 13 14 16 18 20 20 24 26 26 34 39 32 21 23 23 21 21 22 21 17
52 51 47 44 42 41 38 36 35 33 30 26 24 20 16 13 13 15 15 12 11 10 11 13 15 17 18 20 21 19 23 31 11 38 37 25 20 25 25 22 22 22 17
43 46 46 45 41 37 35 33 32 28 25 22 20 17 14 13 16 17 16 11 9 8 8 11 16 20 18 18 18 19 22 19 22 30 38 29 25 22 25 22 25 23 19
39 37 42 43 41 38 36 31 29 28 25 21 18 17 14 15 17 16 13 10 9 7 8 10 14 16 20 16 15 20 23 22 21 20 18 15 16 22 21 24 24 26 22
37 34 37 41 41 39 34 29 27 26 25 22 18 18 16 15 16 13 10 8 8 8 9 10 13 15 18 19 21 26 22 15 23 26 23 20 15 14 18 23 29 28 24
38 32 34 38 40 33 24 26 27 31 30 27 20 20 18 20 20 18 14 10 7 9 8 12 17 18 20 22 23 26 25 25 21 18 18 20 19 16 23 31 32 28 25
34 33 35 35 34 30 25 26 25 30 29 29 26 22 24 17 13 10 4 1 5 8 9 14 17 18 16 17 19 21 30 30 30 25 27 26 27 28 32 35 32 29 27
42 33 34 35 24 27 22 22 23 23 31 29 29 23 22 8 13 9 6 10 11 11 12 11 14 17 11 18 10 25 30 27 21 22 20 29 29 30 33 32 31 30 28
45 39 36 35 26 21 23 19 24 17 28 31 32 26 21 15 8 9 8 18 16 19 15 15 18 16 13 9 16 22 20 11 17 20 24 28 27 24 27 27 30 31 29
45 43 36 33 24 20 26 16 23 18 25 34 35 26 18 12 10 7 8 15 23 23 18 15 11 12 12 16 13 14 13 6 7 13 16 21 19 18 20 22 24 26 26
48 44 40 34 33 28 24 19 19 20 20 26 29 28 23 14 9 3 16 22 29 24 20 18 10 5 4 5 4 5 14 11 15 6 6 10 11 14 16 17 19 20 22
48 52 44 39 39 30 27 23 19 14 18 19 28 34 29 24 15 11 13 24 21 19 18 18 11 4 8 7 13 14 18 9 8 13 10 15 13 12 10 12 15 18 20
54 52 49 43 41 32 24 22 21 21 17 16 26 39 32 27 17 16 17 16 14 18 19 19 19 8 5 9 9 14 15 17 11 17 17 20 16 17 13 8 11 12 13
60 55 49 45 42 34 29 22 18 26 20 17 24 37 34 26 22 19 21 20 21 24 22 18 15 12 12 17 15 17 26 20 17 21 20 21 23 21 20 19 13 12 10
62 64 56 51 50 43 41 36 26 30 29 26 26 34 32 25 29 35 32 31 32 26 24 20 15 13 16 9 5 12 30 29 7 25 28 29 27 24 19 15 12 17 12
65 65 62 57 55 48 40 37 30 27 30 23 19 39 33 28 30 27 28 30 34 31 23 20 18 14 14 13 12 7 13 20 17 21 24 22 28 25 26 20 15 18 21
71 70 66 62 53 49 42 38 32 32 33 32 34 46 38 37 34 27 31 39 30 30 23 17 20 22 17 16 11 5 6 11 25 22 15 22 16 26 27 24 20 14 20
65 64 65 59 54 50 46 45 39 40 47 40 35 44 41 41 35 28 28 32 33 28 24 23 20 25 19 16 16 7 7 22 8 17 15 16 9 13 24 14 8 15 20
61 66 63 57 54 49 50 46 42 40 41 39 36 37 46 37 32 28 30 26 40 28 33 23 22 24 22 17 16 11 14 8 11 19 9 13 8 21 16 20 6 5 18
65 66 62 59 52 46 47 47 45 43 45 44 44 44 45 46 43 42 43 34 36 34 33 29 28 30 28 23 14 9 8 3 1 4 6 16 12 9 19 23 26 18 16
Wind_Direction_850mb
164 152 149 153 153 152 147 141 139 145 147 148 143 143 144 146 143 138 136 142 144 146 147 143 139 136 132 131 131 124 129 134 140 142 144 137 132 130 129 127 124 121 119
157 156 154 152 154 155 150 145 142 139 143 148 150 146 148 150 145 146 148 157 160 163 166 166 158 157 150 151 152 156 146 139 143 153 150 142 139 136 130 128 129 125 121
159 155 157 154 152 156 156 151 150 147 145 148 148 149 149 150 148 148 152 155 161 176 183 178 171 161 161 164 164 168 159 147 145 154 152 146 143 138 132 132 132 128 126
157 157 156 155 153 154 155 154 156 155 151 151 154 151 151 151 152 152 154 155 160 163 173 178 174 166 164 167 169 169 153 148 151 155 151 149 144 140 135 137 132 128 127
157 154 154 154 156 156 156 157 159 157 155 155 154 158 154 156 157 156 151 149 144 152 153 165 170 171 172 172 168 165 160 162 163 156 161 158 149 151 144 144 152 151 149
158 158 155 157 158 158 157 157 159 160 163 163 163 161 161 160 157 157 148 139 143 145 148 159 161 162 174 161 165 160 176 175 176 181 170 160 167 163 165 162 160 158 157
163 164 162 164 159 156 158 159 163 168 170 173 166 165 167 163 160 158 146 146 145 142 151 162 160 155 160 151 160 175 192 184 178 185 179 154 162 174 185 176 171 179 175
163 164 165 166 166 166 167 168 169 169 166 167 167 172 175 165 160 152 148 151 148 144 157 161 163 154 153 150 151 184 164 128 155 197 200 203 179 181 189 194 196 201 201
167 166 168 168 169 167 168 170 171 170 168 169 176 179 177 173 159 158 158 154 146 149 148 155 153 154 156 160 157 192 172 158 112 151 185 192 203 199 187 206 213 210 215
170 173 172 173 171 168 170 171 171 177 177 179 183 181 176 170 160 159 154 144 141 154 127 152 157 152 156 170 177 183 189 169 147 146 165 172 190 208 191 210 215 219 218
168 173 183 179 169 169 173 178 191 192 179 166 172 168 158 163 155 145 146 144 152 171 154 150 150 164 173 166 176 175 192 203 169 157 172 182 174 193 210 217 221 220 217
171 172 183 182 178 180 188 205 209 202 197 192 169 161 161 162 165 156 162 190 188 185 177 165 165 176 168 159 173 188 185 190 198 194 210 211 218 227 222 222 223 217 216
184 180 184 185 196 191 192 197 195 204 199 198 181 161 168 180 187 190 156 246 195 187 177 177 175 174 180 167 181 181 186 194 215 232 246 230 229 235 226 222 223 221 216
191 193 190 188 198 193 194 197 203 199 201 197 185 176 172 175 191 207 290 212 224 195 187 174 184 172 172 115 160 187 187 187 201 216 218 225 228 234 226 224 228 227 227
203 194 192 191 196 208 194 188 199 204 186 190 185 185 185 168 165 179 291 200 210 212 192 159 152 171 163 154 147 164 179 195 211 229 224 224 237 235 231 233 234 238 234
215 207 201 196 187 178 185 181 185 173 175 185 188 191 190 166 199 248 290 187 176 169 170 154 147 160 146 149 151 187 200 171 181 197 214 240 249 243 241 241 243 237 230
214 204 202 202 195 189 181 181 184 180 181 181 183 195 198 195 186 115 182 162 168 177 169 156 171 141 167 158 141 166 215 213 177 189 201 255 287 249 244 246 244 242 234
206 207 203 197 198 196 196 193 186 181 162 172 182 186 189 191 201 202 138 163 165 163 160 135 134 181 231 260 273 238 219 254 224 198 208 228 240 270 268 249 244 248 246
204 205 204 203 204 199 194 200 201 203 179 171 182 176 182 190 207 218 203 184 181 179 183 185 208 221 178 255 247 232 223 226 253 219 213 221 223 225 225 243 244 236 247
203 204 208 207 207 203 194 191 205 195 203 202 190 189 183 183 208 206 202 204 191 181 188 181 196 194 201 235 193 189 214 225 214 229 227 233 229 222 221 217 243 229 231
207 204 207 209 208 202 198 193 218 215 200 205 205 204 190 199 210 217 222 216 211 200 194 209 214 201 230 262 231 220 217 216 242 217 221 252 225 229 226 213 222 219 234
204 206 210 212 209 204 207 210 221 231 215 212 209 197 196 194 207 199 203 193 195 195 204 192 233 244 240 243 262 238 220 231 195 212 233 243 242 216 222 217 212 236 240
206 205 210 213 208 211 212 212 216 214 211 212 213 202 204 204 208 201 192 192 207 203 219 209 231 227 213 237 236 269 176 230 227 215 232 205 207 222 219 215 221 235 234
211 212 208 210 212 219 214 216 222 220 212 209 208 207 208 201 202 207 206 210 201 196 223 215 221 202 210 214 225 275 89 166 158 203 223 181 207 200 205 141 165 210 225
211 210 212 213 215 223 220 223 227 231 227 221 214 220 216 209 214 214 216 209 207 213 204 194 190 206 212 212 206 181 186 167 125 124 174 179 235 221 214 207 140 187 211
208 212 215 216 220 221 224 228 229 234 225 223 219 223 218 217 223 222 224 215 210 223 218 224 208 217 218 213 210 214 185 140 33 185 118 203 295 228 238 242 236 223 215